| time (UTC) | temp F | wind direction | speed MPH | gust MPH | rain 1hr in | rain 24hr in | rain mn in | humidity % | barometer mb |
| 20260502170116 | 62 | 49 | 5.0 | 16.0 | 0.00 | 0.00 | 0.00 | 96 | 948.1 |
| 20260502164054 | 62 | 52 | 5.0 | 13.0 | 0.00 | 0.00 | 0.00 | 97 | 948.5 |
| 20260502163037 | 62 | 56 | 5.0 | 14.0 | 0.00 | 0.00 | 0.00 | 97 | 948.5 |
| 20260502162536 | 62 | 56 | 5.0 | 14.0 | 0.00 | 0.00 | 0.00 | 97 | 948.5 |
| 20260502162035 | 62 | 52 | 5.0 | 13.0 | 0.00 | 0.00 | 0.00 | 97 | 948.0 |
| 20260502161534 | 62 | 49 | 4.0 | 15.0 | 0.00 | 0.00 | 0.00 | 97 | 948.3 |
| 20260502160517 | 61 | 43 | 6.0 | 13.0 | 0.00 | 0.00 | 0.00 | 97 | 948.0 |
| 20260502151953 | 61 | 45 | 7.0 | 15.0 | 0.00 | 0.00 | 0.00 | 97 | 947.8 |
| 20260502151452 | 61 | 37 | 6.0 | 15.0 | 0.00 | 0.00 | 0.00 | 97 | 948.0 |
| 20260502150951 | 61 | 59 | 5.0 | 12.0 | 0.00 | 0.00 | 0.00 | 97 | 948.2 |
| 20260502150450 | 61 | 51 | 4.0 | 12.0 | 0.00 | 0.00 | 0.00 | 97 | 948.1 |
| 20260502130326 | 61 | 60 | 8.0 | 19.0 | 0.00 | 0.00 | 0.00 | 96 | 948.5 |
| 20260502123250 | 61 | 55 | 4.0 | 13.0 | 0.00 | 0.00 | 0.00 | 97 | 948.7 |
| 20260502122749 | 61 | 50 | 5.0 | 13.0 | 0.00 | 0.00 | 0.00 | 96 | 948.8 |
| 20260502122248 | 61 | 52 | 4.0 | 13.0 | 0.00 | 0.00 | 0.00 | 97 | 948.9 |
| 20260502121747 | 61 | 49 | 4.0 | 13.0 | 0.00 | 0.00 | 0.00 | 96 | 948.6 |
| 20260502121246 | 61 | 45 | 5.0 | 13.0 | 0.00 | 0.00 | 0.00 | 96 | 948.6 |
| 20260502120745 | 61 | 44 | 6.0 | 13.0 | 0.00 | 0.00 | 0.00 | 96 | 948.8 |
| 20260502120244 | 61 | 43 | 6.0 | 13.0 | 0.00 | 0.00 | 0.00 | 96 | 948.6 |
| 20260502115743 | 61 | 42 | 6.0 | 13.0 | 0.00 | 0.00 | 0.00 | 96 | 948.8 |
| 20260502115242 | 61 | 48 | 5.0 | 13.0 | 0.00 | 0.00 | 0.00 | 97 | 948.7 |
| 20260502114741 | 61 | 39 | 6.0 | 13.0 | 0.00 | 0.00 | 0.00 | 97 | 948.6 |
| 20260502114240 | 61 | 40 | 5.0 | 13.0 | 0.00 | 0.00 | 0.00 | 96 | 948.8 |
| 20260502113739 | 61 | 48 | 5.0 | 13.0 | 0.00 | 0.00 | 0.00 | 96 | 948.9 |
| 20260502113238 | 61 | 49 | 4.0 | 13.0 | 0.00 | 0.00 | 0.00 | 96 | 949.1 |
| 20260502112737 | 61 | 52 | 5.0 | 13.0 | 0.00 | 0.00 | 0.00 | 97 | 949.1 |
| 20260502112236 | 61 | 52 | 4.0 | 13.0 | 0.00 | 0.00 | 0.00 | 96 | 949.0 |
| 20260502111219 | 62 | 48 | 5.0 | 13.0 | 0.00 | 0.00 | 0.00 | 96 | 949.4 |
| 20260502110718 | 62 | 44 | 6.0 | 13.0 | 0.00 | 0.00 | 0.00 | 96 | 949.3 |
| 20260502110218 | 62 | 38 | 8.0 | 13.0 | 0.00 | 0.00 | 0.00 | 96 | 949.2 |
| 20260502105716 | 62 | 41 | 5.0 | 13.0 | 0.00 | 0.00 | 0.00 | 96 | 949.3 |
| 20260502105215 | 62 | 41 | 6.0 | 13.0 | 0.00 | 0.00 | 0.00 | 97 | 949.3 |
| 20260502104714 | 62 | 44 | 6.0 | 13.0 | 0.00 | 0.00 | 0.00 | 97 | 949.7 |
| 20260502104213 | 62 | 56 | 5.0 | 13.0 | 0.00 | 0.00 | 0.00 | 97 | 949.5 |
| 20260502103712 | 62 | 49 | 5.0 | 13.0 | 0.00 | 0.00 | 0.00 | 96 | 949.6 |
| 20260502103211 | 62 | 45 | 5.0 | 13.0 | 0.00 | 0.00 | 0.00 | 97 | 949.6 |
| 20260502102710 | 62 | 46 | 6.0 | 14.0 | 0.00 | 0.00 | 0.00 | 96 | 949.6 |
| 20260502102209 | 62 | 56 | 6.0 | 14.0 | 0.00 | 0.00 | 0.00 | 96 | 949.5 |
| 20260502101152 | 62 | 49 | 5.0 | 13.0 | 0.00 | 0.00 | 0.00 | 96 | 949.6 |
| 20260502100651 | 62 | 53 | 5.0 | 13.0 | 0.00 | 0.00 | 0.00 | 96 | 949.7 |
| 20260502100151 | 62 | 47 | 5.0 | 15.0 | 0.00 | 0.00 | 0.00 | 96 | 949.8 |
| 20260502091125 | 62 | 56 | 5.0 | 15.0 | 0.00 | 0.00 | 0.00 | 95 | 949.9 |
| 20260502090624 | 62 | 47 | 6.0 | 15.0 | 0.00 | 0.00 | 0.00 | 95 | 949.9 |
| 20260502090123 | 62 | 51 | 6.0 | 16.0 | 0.00 | 0.00 | 0.00 | 95 | 950.1 |
| 20260502071500 | 62 | 44 | 5.0 | 15.0 | 0.00 | 0.00 | 0.00 | 96 | 950.2 |
| 20260502071000 | 62 | 46 | 6.0 | 15.0 | 0.00 | 0.00 | 0.00 | 96 | 949.9 |
| 20260502070458 | 62 | 43 | 6.0 | 13.0 | 0.00 | 0.00 | 0.00 | 96 | 949.9 |
| 20260502065957 | 62 | 44 | 4.0 | 13.0 | 0.00 | 0.00 | 0.00 | 96 | 949.9 |
| 20260502065457 | 62 | 58 | 6.0 | 12.0 | 0.00 | 0.00 | 0.00 | 96 | 950.0 |
| 20260502064956 | 62 | 47 | 4.0 | 12.0 | 0.00 | 0.00 | 0.00 | 96 | 949.8 |
| 20260502064454 | 62 | 45 | 5.0 | 13.0 | 0.00 | 0.00 | 0.00 | 96 | 949.9 |
| 20260502063953 | 62 | 57 | 5.0 | 13.0 | 0.00 | 0.00 | 0.00 | 96 | 949.7 |
| 20260502063453 | 62 | 51 | 4.0 | 13.0 | 0.00 | 0.00 | 0.00 | 96 | 949.9 |
| 20260502062952 | 62 | 46 | 6.0 | 13.0 | 0.00 | 0.00 | 0.00 | 96 | 949.6 |
| 20260502062450 | 62 | 43 | 6.0 | 14.0 | 0.00 | 0.00 | 0.00 | 95 | 949.5 |
| 20260502061949 | 62 | 46 | 4.0 | 14.0 | 0.00 | 0.00 | 0.00 | 96 | 949.4 |
| 20260502061449 | 62 | 49 | 4.0 | 14.0 | 0.00 | 0.00 | 0.00 | 96 | 949.7 |
| 20260502060947 | 62 | 50 | 6.0 | 14.0 | 0.00 | 0.00 | 0.00 | 96 | 949.5 |
| 20260502060447 | 62 | 45 | 5.0 | 14.0 | 0.00 | 0.00 | 0.00 | 96 | 949.5 |
| 20260502055946 | 62 | 49 | 4.0 | 14.0 | 0.00 | 0.00 | 0.00 | 96 | 949.5 |
| 20260502055445 | 62 | 41 | 5.0 | 14.0 | 0.00 | 0.00 | 0.00 | 96 | 949.1 |
| 20260502054944 | 62 | 43 | 5.0 | 14.0 | 0.00 | 0.00 | 0.00 | 95 | 948.9 |
| 20260502054442 | 62 | 42 | 6.0 | 14.0 | 0.00 | 0.00 | 0.00 | 95 | 949.1 |
| 20260502053942 | 62 | 52 | 6.0 | 14.0 | 0.00 | 0.00 | 0.00 | 95 | 949.1 |
| 20260502053441 | 62 | 48 | 5.0 | 14.0 | 0.00 | 0.00 | 0.00 | 96 | 949.0 |
| 20260502050836 | 62 | 50 | 7.0 | 15.0 | 0.00 | 0.00 | 0.00 | 95 | 948.7 |
| 20260502050335 | 62 | 61 | 8.0 | 15.0 | 0.00 | 0.00 | 0.00 | 95 | 948.2 |
| 20260502045834 | 62 | 53 | 7.0 | 14.0 | 0.00 | 0.00 | 0.00 | 95 | 948.2 |
| 20260502044817 | 62 | 53 | 8.0 | 15.0 | 0.00 | 0.00 | 0.00 | 95 | 948.2 |
| 20260502044316 | 62 | 51 | 7.0 | 15.0 | 0.00 | 0.00 | 0.00 | 95 | 948.2 |
| 20260502043815 | 62 | 49 | 8.0 | 20.0 | 0.00 | 0.00 | 0.00 | 96 | 948.1 |
| 20260502043314 | 62 | 50 | 7.0 | 20.0 | 0.00 | 0.00 | 0.00 | 96 | 948.1 |
| 20260502042813 | 62 | 43 | 9.0 | 16.0 | 0.00 | 0.00 | 0.00 | 95 | 947.9 |
| 20260502042312 | 62 | 44 | 10.0 | 20.0 | 0.00 | 0.00 | 0.00 | 95 | 947.9 |
| 20260502041255 | 63 | 47 | 7.0 | 18.0 | 0.00 | 0.00 | 0.00 | 95 | 947.7 |
| 20260502040238 | 63 | 49 | 9.0 | 18.0 | 0.00 | 0.00 | 0.00 | 96 | 947.8 |
| 20260502035737 | 63 | 48 | 9.0 | 18.0 | 0.00 | 0.00 | 0.00 | 95 | 947.6 |
| 20260502034720 | 63 | 48 | 7.0 | 15.0 | 0.00 | 0.00 | 0.00 | 95 | 947.8 |
| 20260502034219 | 63 | 45 | 7.0 | 15.0 | 0.00 | 0.00 | 0.00 | 95 | 947.6 |
| 20260502033718 | 63 | 53 | 8.0 | 15.0 | 0.00 | 0.00 | 0.00 | 94 | 947.5 |
| 20260502033217 | 63 | 45 | 8.0 | 16.0 | 0.00 | 0.00 | 0.00 | 94 | 947.6 |
| 20260502032200 | 65 | 53 | 8.0 | 16.0 | 0.00 | 0.00 | 0.00 | 94 | 947.9 |
| 20260502031143 | 65 | 58 | 8.0 | 16.0 | 0.00 | 0.00 | 0.00 | 94 | 947.3 |
| 20260502030642 | 65 | 46 | 8.0 | 15.0 | 0.00 | 0.00 | 0.00 | 94 | 947.2 |
| 20260502030141 | 64 | 52 | 6.0 | 20.0 | 0.00 | 0.00 | 0.00 | 94 | 947.2 |
| 20260502025640 | 64 | 49 | 9.0 | 20.0 | 0.00 | 0.00 | 0.00 | 93 | 947.3 |
| 20260502025139 | 65 | 55 | 9.0 | 19.0 | 0.00 | 0.00 | 0.00 | 93 | 946.9 |
| 20260502024638 | 65 | 62 | 9.0 | 19.0 | 0.00 | 0.00 | 0.00 | 94 | 947.1 |
| 20260502024137 | 65 | 53 | 8.0 | 16.0 | 0.00 | 0.00 | 0.00 | 95 | 947.2 |
| 20260502023636 | 65 | 46 | 9.0 | 16.0 | 0.00 | 0.00 | 0.00 | 94 | 946.9 |
| 20260502023135 | 65 | 49 | 9.0 | 15.0 | 0.00 | 0.00 | 0.00 | 93 | 946.7 |
| 20260502022634 | 65 | 52 | 9.0 | 16.0 | 0.00 | 0.00 | 0.00 | 95 | 946.8 |
| 20260502022133 | 65 | 52 | 8.0 | 16.0 | 0.00 | 0.00 | 0.00 | 94 | 947.0 |
| 20260502021632 | 65 | 48 | 8.0 | 20.0 | 0.00 | 0.00 | 0.00 | 94 | 946.8 |
| 20260502021131 | 65 | 52 | 8.0 | 20.0 | 0.00 | 0.00 | 0.00 | 92 | 947.0 |
| 20260502020630 | 66 | 46 | 9.0 | 18.0 | 0.00 | 0.00 | 0.00 | 94 | 946.9 |
| 20260502020129 | 65 | 41 | 9.0 | 19.0 | 0.00 | 0.00 | 0.00 | 93 | 946.9 |
| 20260502015112 | 66 | 39 | 11.0 | 20.0 | 0.00 | 0.00 | 0.00 | 93 | 947.1 |
| 20260502014055 | 66 | 44 | 8.0 | 19.0 | 0.00 | 0.00 | 0.00 | 93 | 946.7 |
| 20260502013554 | 66 | 42 | 9.0 | 19.0 | 0.00 | 0.00 | 0.00 | 93 | 946.9 |
| 20260502013053 | 66 | 51 | 10.0 | 18.0 | 0.00 | 0.00 | 0.00 | 93 | 947.2 |
| 20260502012552 | 66 | 44 | 9.0 | 18.0 | 0.00 | 0.00 | 0.00 | 93 | 946.8 |
| 20260502011535 | 66 | 50 | 10.0 | 19.0 | 0.00 | 0.00 | 0.00 | 92 | 947.0 |
| 20260502011034 | 67 | 44 | 9.0 | 19.0 | 0.00 | 0.00 | 0.00 | 93 | 947.1 |
| 20260502010533 | 67 | 42 | 10.0 | 18.0 | 0.00 | 0.00 | 0.00 | 93 | 947.5 |
| 20260502010032 | 67 | 52 | 8.0 | 18.0 | 0.00 | 0.00 | 0.00 | 93 | 947.2 |
| 20260502005531 | 67 | 43 | 10.0 | 18.0 | 0.00 | 0.00 | 0.00 | 93 | 947.3 |
| 20260502005030 | 67 | 49 | 7.0 | 23.0 | 0.00 | 0.00 | 0.00 | 94 | 947.3 |
| 20260502003457 | 67 | 55 | 8.0 | 19.0 | 0.00 | 0.00 | 0.00 | 94 | 947.6 |
| 20260502002956 | 67 | 49 | 7.0 | 15.0 | 0.00 | 0.00 | 0.00 | 93 | 947.5 |
| 20260502002455 | 67 | 53 | 8.0 | 21.0 | 0.00 | 0.00 | 0.00 | 93 | 947.7 |
| 20260502001954 | 67 | 58 | 6.0 | 21.0 | 0.00 | 0.00 | 0.00 | 95 | 947.7 |
| 20260502001453 | 67 | 56 | 9.0 | 20.0 | 0.00 | 0.00 | 0.00 | 94 | 947.6 |
| 20260502000952 | 67 | 55 | 9.0 | 18.0 | 0.00 | 0.00 | 0.00 | 93 | 947.9 |
| 20260502000451 | 67 | 49 | 9.0 | 18.0 | 0.00 | 0.00 | 0.00 | 93 | 947.9 |
| 20260501235950 | 67 | 50 | 9.0 | 20.0 | 0.00 | 0.00 | 0.00 | 94 | 947.7 |
| 20260501235449 | 67 | 53 | 9.0 | 20.0 | 0.00 | 0.00 | 0.00 | 93 | 947.8 |
| 20260501234948 | 67 | 58 | 10.0 | 19.0 | 0.00 | 0.00 | 0.00 | 93 | 947.9 |
| 20260501233931 | 67 | 45 | 9.0 | 22.0 | 0.00 | 0.00 | 0.00 | 93 | 947.9 |
| 20260501233430 | 68 | 47 | 11.0 | 22.0 | 0.00 | 0.00 | 0.00 | 93 | 948.2 |
| 20260501232929 | 68 | 46 | 10.0 | 18.0 | 0.00 | 0.00 | 0.00 | 94 | 948.1 |
| 20260501232428 | 67 | 43 | 10.0 | 21.0 | 0.00 | 0.00 | 0.00 | 95 | 948.4 |
| 20260501231927 | 67 | 45 | 9.0 | 21.0 | 0.00 | 0.00 | 0.00 | 94 | 948.3 |
| 20260501231426 | 67 | 41 | 12.0 | 22.0 | 0.00 | 0.00 | 0.00 | 93 | 948.2 |
| 20260501230925 | 67 | 37 | 13.0 | 22.0 | 0.00 | 0.00 | 0.00 | 92 | 948.7 |
| 20260501230424 | 68 | 47 | 9.0 | 16.0 | 0.00 | 0.00 | 0.00 | 95 | 948.6 |
| 20260501225923 | 68 | 42 | 8.0 | 16.0 | 0.00 | 0.00 | 0.00 | 95 | 949.0 |
| 20260501225422 | 67 | 47 | 8.0 | 18.0 | 0.00 | 0.00 | 0.00 | 95 | 949.0 |
| 20260501224921 | 67 | 46 | 10.0 | 18.0 | 0.00 | 0.00 | 0.00 | 94 | 948.9 |
| 20260501224420 | 67 | 54 | 9.0 | 16.0 | 0.00 | 0.00 | 0.00 | 94 | 948.9 |
| 20260501223919 | 67 | 42 | 8.0 | 16.0 | 0.00 | 0.00 | 0.00 | 96 | 949.2 |
| 20260501223418 | 67 | 43 | 6.0 | 16.0 | 0.00 | 0.00 | 0.00 | 96 | 949.5 |
| 20260501221845 | 67 | 49 | 8.0 | 16.0 | 0.00 | 0.00 | 0.00 | 94 | 949.5 |
| 20260501221344 | 68 | 52 | 7.0 | 13.0 | 0.00 | 0.00 | 0.00 | 95 | 949.5 |
| 20260501220327 | 68 | 52 | 6.0 | 13.0 | 0.00 | 0.00 | 0.00 | 96 | 949.7 |
| 20260501215826 | 67 | 46 | 6.0 | 14.0 | 0.00 | 0.00 | 0.00 | 95 | 949.9 |
| 20260501215325 | 67 | 44 | 8.0 | 14.0 | 0.00 | 0.00 | 0.00 | 95 | 949.6 |
| 20260501214824 | 67 | 45 | 5.0 | 15.0 | 0.00 | 0.00 | 0.00 | 96 | 949.7 |
| 20260501214323 | 66 | 39 | 7.0 | 15.0 | 0.00 | 0.00 | 0.00 | 94 | 949.9 |
| 20260501213822 | 66 | 44 | 7.0 | 14.0 | 0.00 | 0.00 | 0.00 | 93 | 949.8 |
| 20260501213321 | 66 | 41 | 8.0 | 14.0 | 0.00 | 0.00 | 0.00 | 94 | 950.3 |
| 20260501212820 | 66 | 40 | 8.0 | 14.0 | 0.00 | 0.00 | 0.00 | 94 | 950.0 |
| 20260501212319 | 67 | 40 | 9.0 | 14.0 | 0.00 | 0.00 | 0.00 | 93 | 950.1 |
| 20260501211818 | 67 | 42 | 7.0 | 14.0 | 0.00 | 0.00 | 0.00 | 94 | 949.8 |
| 20260501211317 | 67 | 44 | 7.0 | 14.0 | 0.00 | 0.00 | 0.00 | 94 | 950.1 |
| 20260501210816 | 67 | 50 | 6.0 | 14.0 | 0.00 | 0.00 | 0.00 | 94 | 949.8 |
| 20260501210315 | 67 | 53 | 6.0 | 15.0 | 0.00 | 0.00 | 0.00 | 95 | 950.1 |
| 20260501205814 | 66 | 46 | 8.0 | 15.0 | 0.00 | 0.00 | 0.00 | 94 | 950.1 |
| 20260501205313 | 66 | 53 | 7.0 | 19.0 | 0.00 | 0.00 | 0.00 | 94 | 949.9 |
| 20260501204256 | 67 | 45 | 9.0 | 21.0 | 0.00 | 0.00 | 0.00 | 94 | 950.0 |
| 20260501203755 | 66 | 46 | 7.0 | 16.0 | 0.00 | 0.00 | 0.00 | 94 | 949.9 |
| 20260501203254 | 66 | 54 | 8.0 | 16.0 | 0.00 | 0.00 | 0.00 | 94 | 950.0 |
| 20260501202753 | 66 | 46 | 9.0 | 15.0 | 0.00 | 0.00 | 0.00 | 94 | 950.3 |
| 20260501201736 | 65 | 48 | 7.0 | 16.0 | 0.00 | 0.00 | 0.00 | 95 | 950.2 |
| 20260501201235 | 65 | 46 | 9.0 | 20.0 | 0.00 | 0.00 | 0.00 | 94 | 950.2 |
| 20260501200734 | 66 | 60 | 8.0 | 20.0 | 0.00 | 0.00 | 0.00 | 95 | 950.4 |
| 20260501195717 | 65 | 54 | 7.0 | 18.0 | 0.00 | 0.00 | 0.00 | 95 | 949.9 |
| 20260501195216 | 65 | 57 | 10.0 | 18.0 | 0.00 | 0.00 | 0.00 | 94 | 949.9 |
| 20260501194159 | 65 | 44 | 9.0 | 21.0 | 0.00 | 0.00 | 0.00 | 94 | 949.7 |
| 20260501193658 | 65 | 42 | 9.0 | 21.0 | 0.00 | 0.00 | 0.00 | 94 | 949.7 |
| 20260501193157 | 65 | 45 | 9.0 | 16.0 | 0.00 | 0.00 | 0.00 | 94 | 949.6 |
| 20260501192656 | 65 | 43 | 11.0 | 20.0 | 0.00 | 0.00 | 0.00 | 94 | 949.6 |
| 20260501192155 | 65 | 47 | 9.0 | 20.0 | 0.00 | 0.00 | 0.00 | 93 | 949.6 |
| 20260501191654 | 65 | 43 | 11.0 | 20.0 | 0.00 | 0.00 | 0.00 | 93 | 949.7 |
| 20260501191153 | 65 | 43 | 10.0 | 18.0 | 0.00 | 0.00 | 0.00 | 93 | 949.5 |
| 20260501190652 | 64 | 53 | 9.0 | 16.0 | 0.00 | 0.00 | 0.00 | 93 | 949.3 |
| 20260501185119 | 64 | 47 | 8.0 | 18.0 | 0.00 | 0.00 | 0.00 | 94 | 949.8 |
| 20260501184618 | 64 | 44 | 9.0 | 18.0 | 0.00 | 0.00 | 0.00 | 94 | 949.7 |
| 20260501184117 | 64 | 48 | 9.0 | 21.0 | 0.00 | 0.00 | 0.00 | 94 | 949.6 |
| 20260501183616 | 64 | 50 | 8.0 | 21.0 | 0.00 | 0.00 | 0.00 | 93 | 949.6 |
| 20260501183115 | 64 | 55 | 7.0 | 21.0 | 0.00 | 0.00 | 0.00 | 94 | 949.2 |
| 20260501182614 | 64 | 53 | 9.0 | 21.0 | 0.00 | 0.00 | 0.00 | 94 | 949.5 |
| 20260501182113 | 63 | 57 | 8.0 | 18.0 | 0.00 | 0.00 | 0.00 | 94 | 949.7 |
| 20260501181613 | 63 | 62 | 8.0 | 18.0 | 0.00 | 0.00 | 0.00 | 94 | 949.5 |
| 20260501181112 | 63 | 59 | 9.0 | 16.0 | 0.00 | 0.00 | 0.00 | 94 | 949.8 |
| 20260501180055 | 63 | 65 | 8.0 | 15.0 | 0.00 | 0.00 | 0.00 | 93 | 949.6 |